GW5247 Weather Reports


time (UTC)temp
F
wind
direction
speed
knots
gust
knots
rain 1hr
in
rain 24hr
in
rain mn
in
humidity
%
barometer
mb
20260510183518 83 245 0.9 3.5 0.00 0.00 0.00 47 1015.2
20260510182517 83 252 1.7 4.3 0.00 0.00 0.00 46 1014.9
20260510181518 83 249 0.9 3.5 0.00 0.00 0.00 45 1014.9
20260510180538 83 229 0.9 3.5 0.00 0.00 0.00 48 1015.1
20260510175518 82 347 2.6 6.1 0.00 0.00 0.00 47 1014.8
20260510174518 82 1 3.5 7.0 0.00 0.00 0.00 48 1014.9
20260510173515 81 246 0.9 3.5 0.00 0.00 0.00 48 1014.8
20260510172515 81 339 1.7 4.3 0.00 0.00 0.00 49 1015.1
20260510171556 82 263 1.7 5.2 0.00 0.00 0.00 48 1015.2
20260510170516 81 257 2.6 4.3 0.00 0.00 0.00 48 1015.0
20260510165516 81 261 2.6 4.3 0.00 0.00 0.00 47 1015.0
20260510164516 81 279 1.7 4.3 0.00 0.00 0.00 50 1015.0
20260510163516 81 246 2.6 5.2 0.00 0.00 0.00 50 1015.1
20260510162516 80 342 1.7 5.2 0.00 0.00 0.00 53 1015.2
20260510161557 80 351 2.6 6.1 0.00 0.00 0.00 53 1015.2
20260510160537 79 177 1.7 4.3 0.00 0.00 0.00 55 1015.3
20260510155537 79 352 2.6 6.1 0.00 0.00 0.00 56 1015.4
20260510154517 78 350 2.6 6.1 0.00 0.00 0.00 57 1015.4
20260510153517 78 328 2.6 5.2 0.00 0.00 0.00 59 1015.6
20260510152518 78 289 1.7 6.1 0.00 0.00 0.00 59 1015.5
20260510151518 78 321 0.9 5.2 0.00 0.00 0.00 59 1015.3
20260510150518 77 2 1.7 4.3 0.00 0.00 0.00 60 1015.3
20260510145518 76 1 1.7 4.3 0.00 0.00 0.00 62 1015.4
20260510144515 76 339 1.7 5.2 0.00 0.00 0.00 65 1015.4
20260510143535 75 1 2.6 9.6 0.00 0.00 0.00 65 1015.3
20260510142515 75 343 2.6 7.8 0.00 0.00 0.00 66 1015.3
20260510141536 75 351 3.5 7.8 0.00 0.00 0.00 66 1015.3
20260510140515 74 358 1.7 5.2 0.00 0.00 0.00 68 1015.3
20260510135519 73 340 2.6 5.2 0.00 0.00 0.00 70 1015.4
20260510134519 72 260 0.9 3.5 0.00 0.00 0.00 74 1015.2
20260510133539 72 231 0.9 4.3 0.00 0.00 0.00 74 1015.2
20260510132517 71 255 0.9 4.3 0.00 0.00 0.00 77 1015.2
20260510131516 70 343 0.9 4.3 0.00 0.00 0.00 78 1015.2
20260510130517 70 245 0.9 3.5 0.00 0.00 0.00 80 1015.2
20260510125517 69 232 0.9 2.6 0.00 0.00 0.00 83 1015.0
20260510124517 67 92 0.9 2.6 0.00 0.00 0.00 86 1015.0
20260510123517 66 242 0.9 2.6 0.00 0.00 0.00 88 1015.0
20260510122538 65 340 0.9 2.6 0.00 0.00 0.00 94 1014.9
20260510121518 64 227 0.9 3.5 0.00 0.00 0.00 97 1014.9
20260510120518 63 295 0.9 1.7 0.00 0.00 0.00 98 1014.8
20260510115530 62 285 0.9 1.7 0.00 0.00 0.00 98 1014.8
20260510114530 61 48 0.0 1.7 0.00 0.00 0.00 98 1014.9
20260510113530 60 11 0.0 0.9 0.00 0.00 0.00 98 1014.8
20260510112515 60 21 0.9 0.9 0.00 0.00 0.00 98 1014.6
20260510111516 60 36 0.9 1.7 0.00 0.00 0.00 98 1014.5
20260510110516 60 343 0.0 0.9 0.00 0.00 0.00 98 1014.5
20260510105516 59 42 0.9 1.7 0.00 0.00 0.00 98 1014.2
20260510104516 60 37 0.0 1.7 0.00 0.00 0.00 98 1014.2
20260510103516 60 7 0.0 0.9 0.00 0.00 0.00 98 1014.1
20260510102516 60 45 0.0 1.7 0.00 0.00 0.00 98 1013.8
20260510101517 60 2 0.0 0.9 0.00 0.00 0.00 98 1013.6
20260510100537 60 357 0.9 1.7 0.00 0.00 0.00 98 1013.5
20260510095517 60 354 0.9 1.7 0.00 0.00 0.00 98 1013.5
20260510094517 60 322 0.0 1.7 0.00 0.00 0.00 98 1013.5
20260510093516 60 1 0.9 2.6 0.00 0.00 0.00 98 1013.4
20260510092516 59 340 0.9 2.6 0.00 0.00 0.00 98 1013.3
20260510091516 59 3 0.9 0.9 0.00 0.00 0.00 98 1013.2
20260510090517 59 16 0.0 1.7 0.00 0.00 0.00 98 1013.0
20260510085516 60 357 0.0 1.7 0.00 0.00 0.00 98 1012.9
20260510084516 60 343 0.9 1.7 0.00 0.00 0.00 98 1012.7
20260510083516 60 45 0.0 1.7 0.00 0.00 0.00 98 1012.6
20260510082515 60 8 0.9 1.7 0.00 0.00 0.00 98 1012.7
20260510081515 59 16 0.9 1.7 0.00 0.00 0.00 98 1012.7
20260510080516 59 21 0.9 1.7 0.00 0.00 0.00 98 1012.7
20260510075515 59 27 0.0 0.9 0.00 0.00 0.00 98 1012.6
20260510074516 59 23 0.0 0.9 0.00 0.00 0.00 98 1012.6
20260510073516 59 28 0.0 0.9 0.00 0.00 0.00 98 1012.6
20260510072516 60 59 0.0 1.7 0.00 0.00 0.00 98 1012.5
20260510071517 60 26 0.0 0.9 0.00 0.00 0.00 98 1012.5
20260510070516 60 100 0.0 0.9 0.00 0.00 0.00 98 1012.4
20260510065516 60 73 0.0 0.9 0.00 0.00 0.00 98 1012.7
20260510064517 60 24 0.0 0.9 0.00 0.00 0.00 98 1012.7
20260510063516 60 282 0.0 0.9 0.00 0.00 0.00 98 1012.6
20260510062517 60 53 0.0 1.7 0.00 0.00 0.00 98 1012.4
20260510061537 60 63 0.0 0.9 0.00 0.00 0.00 98 1012.4
20260510060537 60 33 0.0 0.9 0.00 0.00 0.00 98 1012.5
20260510055517 60 13 0.0 1.7 0.00 0.00 0.00 98 1012.6
20260510054538 60 5 0.0 0.9 0.00 0.00 0.00 98 1012.8
20260510053518 60 26 0.0 1.7 0.00 0.00 0.00 98 1012.8
20260510052538 60 70 0.0 0.9 0.00 0.00 0.00 97 1013.0
20260510051538 60 14 0.0 1.7 0.00 0.00 0.00 97 1013.2
20260510050515 61 20 0.0 1.7 0.00 0.00 0.00 97 1013.0
20260510045515 61 28 0.0 0.9 0.00 0.00 0.00 97 1013.2
20260510044515 61 35 0.0 0.9 0.00 0.00 0.00 97 1013.3
20260510043516 61 21 0.0 1.7 0.00 0.00 0.00 97 1013.2
20260510042516 61 28 0.0 1.7 0.00 0.00 0.00 97 1013.1
20260510041517 61 5 0.9 1.7 0.00 0.00 0.00 97 1013.1
20260510040516 62 19 0.0 0.9 0.00 0.00 0.00 97 1013.0
20260510035516 62 70 0.0 1.7 0.00 0.00 0.00 97 1012.9
20260510034517 61 22 0.0 1.7 0.00 0.00 0.00 97 1012.9
20260510033516 61 50 0.0 1.7 0.00 0.00 0.00 97 1012.8
20260510032537 61 346 0.0 2.6 0.00 0.00 0.00 97 1013.0
20260510031517 61 14 0.0 0.9 0.00 0.00 0.00 96 1012.8
20260510030517 61 5 0.0 1.7 0.00 0.00 0.00 96 1012.8
20260510025537 62 33 0.0 1.7 0.00 0.00 0.00 96 1012.8
20260510024518 62 345 0.0 0.9 0.00 0.00 0.00 96 1012.7
20260510023538 62 356 0.0 0.9 0.00 0.00 0.00 96 1012.7
20260510022516 62 349 0.0 0.9 0.00 0.00 0.00 96 1012.7
20260510021515 63 323 0.0 0.9 0.00 0.00 0.00 96 1012.6
20260510020516 62 357 0.9 2.6 0.00 0.00 0.00 95 1012.4
20260510015516 62 329 0.0 0.9 0.00 0.00 0.00 95 1012.6
20260510014516 63 348 0.0 0.9 0.00 0.00 0.00 95 1012.5
20260510013516 63 21 0.0 0.9 0.00 0.00 0.00 94 1012.2
20260510012516 63 345 0.0 0.9 0.00 0.00 0.00 93 1012.1
20260510011516 64 2 0.0 0.9 0.00 0.00 0.00 93 1011.8
20260510010517 64 351 0.0 0.9 0.00 0.00 0.00 92 1011.8
20260510005517 65 0.0 0.0 0.00 0.00 0.00 92 1011.8
20260510004517 66 0.0 0.0 0.00 0.00 0.00 90 1011.7
20260510003517 66 351 0.0 1.7 0.00 0.00 0.00 89 1011.6
20260510002518 67 0.0 0.0 0.00 0.00 0.00 88 1011.6
20260510001537 68 220 0.0 0.9 0.00 0.00 0.00 86 1011.7
20260510000518 69 0.0 0.0 0.00 0.00 0.00 83 1011.7
20260509235518 70 0.0 0.0 0.00 0.00 0.00 81 1011.6
20260509234538 71 271 0.0 0.9 0.00 0.00 0.00 79 1011.4
20260509233518 72 281 0.0 0.9 0.00 0.00 0.00 78 1011.2
20260509232535 72 250 0.0 1.7 0.00 0.00 0.00 77 1010.8
20260509231515 72 252 0.9 2.6 0.00 0.00 0.00 75 1010.7
20260509230516 73 273 0.0 1.7 0.00 0.00 0.00 75 1010.7
20260509225516 73 263 0.9 2.6 0.00 0.00 0.00 75 1010.6
20260509224516 73 258 0.9 2.6 0.00 0.00 0.00 74 1010.4
20260509223516 73 255 0.0 1.7 0.00 0.00 0.00 74 1010.7
20260509222516 73 252 0.9 2.6 0.00 0.00 0.00 74 1010.5
20260509221517 72 253 0.9 1.7 0.00 0.00 0.00 74 1010.7
20260509220517 73 256 0.9 2.6 0.00 0.00 0.00 74 1010.8
20260509215517 73 262 0.9 2.6 0.00 0.00 0.00 74 1010.5
20260509214517 73 259 1.7 4.3 0.00 0.00 0.00 73 1010.6
20260509213517 73 252 1.7 4.3 0.00 0.00 0.00 72 1010.3
20260509212517 72 254 1.7 3.5 0.00 0.00 0.00 73 1010.6
20260509211538 72 256 1.7 5.2 0.00 0.00 0.00 73 1010.4
20260509210538 72 255 1.7 4.3 0.00 0.00 0.00 73 1010.6
20260509205518 73 250 0.9 2.6 0.00 0.00 0.00 72 1010.3
20260509204538 72 254 0.9 3.5 0.00 0.00 0.00 73 1010.1
20260509203518 72 260 0.9 3.5 0.00 0.00 0.00 74 1010.5
20260509202518 72 265 0.9 3.5 0.00 0.00 0.00 73 1010.4
20260509201518 72 254 1.7 3.5 0.00 0.00 0.00 73 1010.7
20260509200516 72 261 0.9 3.5 0.00 0.00 0.00 73 1010.7
20260509195516 72 244 0.9 4.3 0.00 0.00 0.00 73 1010.7
20260509194515 71 263 0.9 3.5 0.00 0.00 0.00 73 1010.9
20260509193516 72 258 1.7 3.5 0.00 0.00 0.00 72 1011.1
20260509192516 72 244 0.9 4.3 0.00 0.00 0.00 70 1011.3
20260509191516 73 251 1.7 3.5 0.00 0.00 0.00 68 1011.2
20260509190517 74 223 1.7 4.3 0.00 0.00 0.00 66 1010.9
20260509185517 74 236 1.7 5.2 0.00 0.00 0.00 66 1010.4
20260509184517 72 247 1.7 4.3 0.00 0.00 0.00 68 1010.7